Wauseon, OH

1:23 AM EDT on August 31, 2016 (GMT -0400)
Fulton County

Weather History for KUSE - March, 2014

Change the Weather History Date:

Monday, March 31, 2014

  Actual Average (KTOL) Record (KTOL)
Temperature  
Mean Temperature 46 °F 43 °F  
Max Temperature 62 °F 54 °F 80 °F (1943)
Min Temperature 30 °F 33 °F 7 °F (1923)
Degree Days  
Heating Degree Days 19 22  
Month to date heating degree days 850  
Since 1 July heating degree days 5426  
Cooling Degree Days 0 0  
Month to date cooling degree days 0  
Year to date cooling degree days 0  
Moisture  
Dew Point 31 °F    
Average Humidity 58    
Maximum Humidity 87    
Minimum Humidity 34    
Precipitation  
Precipitation 0.00 in 0.10 in 1.11 in (1985)
Month to date precipitation 2.48  
Year to date precipitation 6.60  
Snow  
Snow 0.00 in 0.10 in - ()
Month to date snowfall 5.7  
Since 1 July snowfall 36.2  
Snow Depth -    
Sea Level Pressure  
Sea Level Pressure 30.11 in    
Wind  
Wind Speed 6 mph (SE)    
Max Wind Speed 16 mph    
Max Gust Speed 21 mph    
Visibility 10 miles    
Events      
T = Trace of Precipitation, MM = Missing Value Source: NWS Daily Summary

Daily Weather History Graph

Daily Weather History Graph

Search for Another Location

Airport or City:

Trip Planner

Search our weather history database for the weather conditions in past years. The results will help you decide how hot, cold, wet, or windy it might be!

Date:

Astronomy

Mar. 31, 2014 Rise Set
Actual Time 7:21 AM EDT 8:00 PM EDT
Civil Twilight 6:53 AM EDT 8:28 PM EDT
Nautical Twilight 6:20 AM EDT 9:01 PM EDT
Astronomical Twilight 5:46 AM EDT 9:36 PM EDT
Moon 7:43 AM EDT 9:19 PM EDT
Length of Visible Light 13h 35m
Length of Day
12h 39m
New Moon, 1% of the Moon is Illuminated
Mar 31
New Moon
Apr 7
First Quarter
Apr 15
Full
Apr 22
Last Quarter
Apr 29
New

Hourly Weather History & Observations

Time (EDT) Temp. Windchill Dew Point Humidity Pressure Visibility Wind Dir Wind Speed Gust Speed Precip Events Conditions
12:15 AM 33.8 °F 29.6 °F 28.4 °F 81% 30.13 in 10.0 mi SE 4.6 mph - N/A   Clear
12:35 AM 33.8 °F 30.8 °F 26.6 °F 75% 30.13 in 10.0 mi SE 3.5 mph - N/A   Clear
12:55 AM 35.6 °F 32.8 °F 26.6 °F 70% 30.14 in 10.0 mi SE 3.5 mph - N/A   Clear
1:15 AM 33.8 °F - 26.6 °F 75% 30.14 in 10.0 mi Calm Calm - N/A   Clear
1:35 AM 35.6 °F - 26.6 °F 70% 30.14 in 10.0 mi Calm Calm - N/A   Clear
1:55 AM 35.6 °F - 24.8 °F 65% 30.14 in 10.0 mi Calm Calm - N/A   Clear
2:15 AM 35.6 °F - 24.8 °F 65% 30.15 in 10.0 mi Calm Calm - N/A   Clear
2:35 AM 33.8 °F 30.8 °F 26.6 °F 75% 30.14 in 10.0 mi ESE 3.5 mph - N/A   Clear
2:55 AM 33.8 °F - 26.6 °F 75% 30.15 in 10.0 mi Calm Calm - N/A   Clear
3:15 AM 33.8 °F - 26.6 °F 75% 30.15 in 10.0 mi Calm Calm - N/A   Clear
3:35 AM 33.8 °F - 26.6 °F 75% 30.15 in 10.0 mi Calm Calm - N/A   Clear
3:55 AM 33.8 °F - 26.6 °F 75% 30.14 in 10.0 mi Calm Calm - N/A   Clear
4:15 AM 33.8 °F - 26.6 °F 75% 30.14 in 10.0 mi Calm Calm - N/A   Clear
4:35 AM 33.8 °F - 26.6 °F 75% 30.14 in 10.0 mi Calm Calm - N/A   Clear
4:55 AM 32.0 °F - 26.6 °F 80% 30.14 in 10.0 mi Calm Calm - N/A   Clear
5:15 AM 32.0 °F - 24.8 °F 75% 30.15 in 10.0 mi Calm Calm - N/A   Clear
5:35 AM 32.0 °F - 24.8 °F 75% 30.15 in 10.0 mi Calm Calm - N/A   Clear
5:55 AM 33.8 °F - 24.8 °F 70% 30.15 in 10.0 mi Calm Calm - N/A   Clear
6:15 AM 33.8 °F - 24.8 °F 70% 30.15 in 10.0 mi Calm Calm - N/A   Clear
6:35 AM 32.0 °F - 24.8 °F 75% 30.15 in 10.0 mi Calm Calm - N/A   Clear
6:55 AM 32.0 °F - 26.6 °F 80% 30.16 in 10.0 mi Calm Calm - N/A   Clear
7:15 AM 32.0 °F - 26.6 °F 80% 30.17 in 10.0 mi Calm Calm - N/A   Clear
7:35 AM 30.2 °F - 26.6 °F 86% 30.18 in 10.0 mi Calm Calm - N/A   Clear
7:55 AM 30.2 °F 25.4 °F 26.6 °F 86% 30.19 in 10.0 mi ENE 4.6 mph - N/A   Clear
8:15 AM 32.0 °F 28.7 °F 28.4 °F 87% 30.19 in 10.0 mi East 3.5 mph - N/A   Clear
8:35 AM 33.8 °F - 30.2 °F 87% 30.19 in 10.0 mi Calm Calm - N/A   Clear
8:55 AM 35.6 °F - 30.2 °F 81% 30.19 in 10.0 mi Calm Calm - N/A   Clear
9:15 AM 37.4 °F 33.8 °F 32.0 °F 81% 30.19 in 10.0 mi ESE 4.6 mph - N/A   Clear
9:35 AM 41.0 °F 37.1 °F 32.0 °F 70% 30.19 in 10.0 mi SE 5.8 mph - N/A   Clear
9:55 AM 42.8 °F 39.3 °F 33.8 °F 70% 30.19 in 9.0 mi SE 5.8 mph - N/A   Clear
10:15 AM 44.6 °F 41.4 °F 33.8 °F 66% 30.19 in 10.0 mi SE 5.8 mph - N/A   Clear
10:35 AM 46.4 °F 42.4 °F 33.8 °F 62% 30.19 in 10.0 mi SSE 8.1 mph - N/A   Clear
10:55 AM 48.2 °F - 33.8 °F 58% 30.19 in 10.0 mi SSE 6.9 mph - N/A   Clear
11:15 AM 50.0 °F - 35.6 °F 58% 30.18 in 10.0 mi SSE 8.1 mph - N/A   Clear
11:35 AM 51.8 °F - 33.8 °F 50% 30.18 in 10.0 mi SE 9.2 mph - N/A   Clear
11:55 AM 51.8 °F - 33.8 °F 50% 30.18 in 10.0 mi SSE 8.1 mph - N/A   Clear
12:15 PM 53.6 °F - 33.8 °F 47% 30.17 in 10.0 mi SSE 10.4 mph - N/A   Clear
12:35 PM 53.6 °F - 33.8 °F 47% 30.16 in 10.0 mi South 11.5 mph - N/A   Clear
12:55 PM 55.4 °F - 35.6 °F 47% 30.16 in 10.0 mi SE 13.8 mph - N/A   Clear
1:15 PM 55.4 °F - 35.6 °F 47% 30.16 in 10.0 mi SSE 10.4 mph - N/A   Clear
1:35 PM 57.2 °F - 33.8 °F 41% 30.16 in 10.0 mi South 11.5 mph 17.3 mph N/A   Clear
1:55 PM 57.2 °F - 32.0 °F 38% 30.15 in 10.0 mi South 12.7 mph - N/A   Clear
2:15 PM 59.0 °F - 33.8 °F 39% 30.14 in 10.0 mi South 13.8 mph - N/A   Clear
2:35 PM 60.8 °F - 33.8 °F 36% 30.13 in 10.0 mi SSE 13.8 mph 19.6 mph N/A   Clear
2:55 PM 60.8 °F - 32.0 °F 34% 30.12 in 10.0 mi SSE 12.7 mph - N/A   Clear
3:15 PM 60.8 °F - 33.8 °F 36% 30.11 in 10.0 mi SSE 11.5 mph 18.4 mph N/A   Clear
3:35 PM 60.8 °F - 32.0 °F 34% 30.11 in 10.0 mi South 13.8 mph - N/A   Clear
3:55 PM 60.8 °F - 32.0 °F 34% 30.10 in 10.0 mi South 16.1 mph - N/A   Clear
4:15 PM 60.8 °F - 33.8 °F 36% 30.09 in 10.0 mi SSE 15.0 mph - N/A   Clear
4:35 PM 62.6 °F - 33.8 °F 34% 30.08 in 10.0 mi South 16.1 mph - N/A   Clear
4:55 PM 62.6 °F - 33.8 °F 34% 30.07 in 10.0 mi South 13.8 mph 20.7 mph N/A   Clear
5:15 PM 62.6 °F - 33.8 °F 34% 30.06 in 10.0 mi SSE 16.1 mph - N/A   Clear
5:35 PM 62.6 °F - 35.6 °F 37% 30.06 in 10.0 mi SSE 13.8 mph 20.7 mph N/A   Clear
5:55 PM 62.6 °F - 35.6 °F 37% 30.05 in 10.0 mi SE 16.1 mph - N/A   Clear
6:15 PM 60.8 °F - 35.6 °F 39% 30.04 in 10.0 mi SSE 15.0 mph - N/A   Clear
6:35 PM 60.8 °F - 33.8 °F 36% 30.04 in 10.0 mi SSE 15.0 mph - N/A   Clear
6:55 PM 59.0 °F - 35.6 °F 42% 30.04 in 10.0 mi SE 10.4 mph 16.1 mph N/A   Clear
7:15 PM 57.2 °F - 37.4 °F 48% 30.03 in 10.0 mi SE 11.5 mph - N/A   Clear
7:35 PM 55.4 °F - 35.6 °F 47% 30.02 in 10.0 mi SE 12.7 mph - N/A   Clear
7:55 PM 55.4 °F - 35.6 °F 47% 30.01 in 10.0 mi SE 11.5 mph - N/A   Clear
8:15 PM 53.6 °F - 35.6 °F 51% 30.01 in 10.0 mi SE 11.5 mph - N/A   Clear
8:35 PM 53.6 °F - 35.6 °F 51% 30.00 in 10.0 mi SE 13.8 mph - N/A   Clear
8:55 PM 53.6 °F - 33.8 °F 47% 30.00 in 10.0 mi SE 13.8 mph - N/A   Clear
9:15 PM 53.6 °F - 35.6 °F 51% 30.00 in 10.0 mi SE 13.8 mph - N/A   Clear
9:35 PM 53.6 °F - 35.6 °F 51% 30.00 in 10.0 mi SE 13.8 mph - N/A   Clear
9:55 PM 53.6 °F - 33.8 °F 47% 29.99 in 10.0 mi SE 13.8 mph 19.6 mph N/A   Clear
10:15 PM 51.8 °F - 33.8 °F 50% 29.99 in 10.0 mi SSE 11.5 mph - N/A   Clear
10:35 PM 51.8 °F - 33.8 °F 50% 29.98 in 10.0 mi SE 13.8 mph - N/A   Clear
10:55 PM 51.8 °F - 33.8 °F 50% 29.97 in 10.0 mi SE 12.7 mph - N/A   Clear
11:15 PM 51.8 °F - 33.8 °F 50% 29.96 in 10.0 mi SE 12.7 mph - N/A   Scattered Clouds
11:35 PM 51.8 °F - 35.6 °F 54% 29.95 in 10.0 mi SE 15.0 mph - N/A   Overcast
11:55 PM 51.8 °F - 35.6 °F 54% 29.94 in 10.0 mi SE 13.8 mph - N/A   Overcast